Flag for Germany Weather past 2 weeks in Langen, Hesse, Germany

Now
81 °F

Scattered showers. Passing clouds.


Feels Like: 80 °F
Forecast: 59 / 75 °F
Wind: 8 mph from Northeast

Location: Frankfurt-M-Flughafen Airport

Current Time: Jul 24, 2014 at 3:14:31 PM

Latest Report: Jul 24, 2014 at 2:20 PM


Visibility: N/A

Pressure: 29.92 "Hg

Humidity: 37%

Dew point: 52 °F

Location of LangenLocation

Historic Weather in Langen — Graph

°F

Langen temperature yesterday

Maximum temperature yesterday: 84 °F (at 1:20 PM)
Minimum temperature yesterday: 68 °F (at 6:20 AM)
Average temperature yesterday: 77 °F

Past Weeks' High & Low Weather Summary

 TemperatureHumidityPressure
High93 °F (Jul 19, 4:20 PM)100% (Jul 9, 2:50 PM)30.18 "Hg (Jul 9, 2:50 PM)
Low55 °F (Jul 9, 9:20 PM)23% (Jul 18, 6:20 PM)29.71 "Hg (Jul 9, 3:50 PM)
Average71 °F70%29.95 "Hg
* Reported Jul 9 2:50 PM — Jul 24 1:50 PM, Langen, Weather by CustomWeather, © 2014

Note: Actual official high and low records may vary slightly from our data, if they occured in-between our weather recording intervals... More about our weather records

Advertising

Langen weather history for previous 24 hours

 ConditionsComfort  
Time TempWeatherWind HumidityBarometerVisibility
1:50 PM
Jul 24
81 °FPassing clouds.10 mph37%29.92 "HgN/A
1:20 PM79 °FSunny.8 mph45%29.92 "Hg10 mi
12:50 PM79 °FSunny.10 mph42%29.92 "Hg10 mi
12:20 PM77 °FSunny.10 mph44%29.95 "Hg10 mi
11:50 AM77 °FSunny.12 mph44%29.95 "Hg10 mi
11:20 AM77 °FPassing clouds.14 mph47%29.95 "HgN/A
10:50 AM75 °FPassing clouds.12 mph50%29.95 "HgN/A
10:20 AM73 °FPassing clouds.9 mph53%29.95 "HgN/A
9:50 AM72 °FPassing clouds.12 mph57%29.95 "HgN/A
9:20 AM70 °FSunny.10 mph60%29.95 "Hg10 mi
8:50 AM70 °FSunny.10 mph60%29.95 "Hg10 mi
8:20 AM70 °FSunny.12 mph60%29.95 "Hg10 mi
7:50 AM68 °FSunny.14 mph64%29.95 "Hg10 mi
7:20 AM68 °FSunny.15 mph64%29.95 "Hg10 mi
6:50 AM68 °FSunny.13 mph64%29.95 "Hg10 mi
6:20 AM66 °FClear.10 mph68%29.92 "Hg10 mi
5:50 AM66 °FClear.12 mph68%29.92 "Hg10 mi
5:20 AM66 °FClear.10 mph68%29.92 "Hg10 mi
4:50 AM64 °FClear.10 mph73%29.92 "Hg10 mi
4:20 AM66 °FClear.12 mph68%29.92 "Hg10 mi
3:50 AM66 °FClear.13 mph73%29.95 "Hg10 mi
3:20 AM68 °FClear.13 mph69%29.95 "Hg10 mi
2:50 AM68 °FClear.10 mph69%29.95 "Hg10 mi
2:20 AM68 °FClear.8 mph69%29.95 "Hg10 mi
1:50 AM70 °FClear.10 mph64%29.95 "Hg10 mi
1:20 AM70 °FClear.12 mph64%29.98 "Hg10 mi
12:50 AM70 °FClear.13 mph69%29.98 "Hg10 mi
12:20 AM72 °FClear.12 mph65%29.98 "Hg10 mi
11:50 PM
Jul 23
72 °FClear.12 mph65%29.98 "Hg10 mi
11:20 PM73 °FClear.12 mph61%29.98 "Hg10 mi
10:50 PM73 °FClear.13 mph61%29.98 "Hg10 mi
10:20 PM75 °FSunny.13 mph57%29.98 "Hg10 mi
9:50 PM77 °FSunny.13 mph51%29.98 "Hg10 mi
9:20 PM79 °FSunny.13 mph48%29.95 "Hg10 mi
8:50 PM81 °FSunny.10 mph39%29.95 "Hg10 mi
8:20 PM81 °FSunny.14 mph39%29.95 "Hg10 mi
7:50 PM82 °FSunny.14 mph37%29.95 "Hg10 mi
7:20 PM84 °FSunny.14 mph33%29.95 "Hg10 mi
6:50 PM84 °FSunny.13 mph33%29.95 "Hg10 mi
6:20 PM84 °FSunny.13 mph33%29.95 "Hg10 mi
5:50 PM84 °FSunny.15 mph35%29.95 "Hg10 mi
5:20 PM84 °FPartly sunny.14 mph37%29.95 "HgN/A
4:50 PM84 °FPartly sunny.12 mph37%29.98 "HgN/A
4:20 PM84 °FPartly sunny.13 mph45%29.98 "HgN/A
3:50 PM82 °FBroken clouds.12 mph45%29.98 "HgN/A
3:20 PM81 °FBroken clouds.12 mph54%29.98 "HgN/A
Weather by CustomWeather, © 2014

See weather overviewHow to use our weather pages